, AK

(GMT )
Deadhorse

Weather History for PASC - March, 2014

Change the Weather History Date:

Saturday, March 29, 2014

  Actual Average Record
Temperature  
Mean Temperature -8 °F -  
Max Temperature -2 °F -3 °F 10 °F (1998)
Min Temperature -13 °F -18 °F -43 °F (1999)
Degree Days  
Heating Degree Days 72    
Moisture  
Dew Point -10 °F    
Average Humidity 87    
Maximum Humidity 100    
Minimum Humidity 76    
Precipitation  
Precipitation 0.00 in - - ()
Sea Level Pressure  
Sea Level Pressure 30.03 in    
Wind  
Wind Speed 5 mph (WSW)    
Max Wind Speed 7 mph    
Max Gust Speed -    
Visibility 3 miles    
Events Fog , Snow    
Averages and records for this station are not official NWS values.
T = Trace of Precipitation, MM = Missing Value Source: NWS Daily Summary

Daily Weather History Graph

Daily Weather History Graph

Search for Another Location

Airport or City:

Trip Planner

Search our weather history database for the weather conditions in past years. The results will help you decide how hot, cold, wet, or windy it might be!

Date:

Astronomy

Mar. 29, 2014 Rise Set
Actual Time 7:09 AM AKDT 8:50 PM AKDT
Civil Twilight 6:04 AM AKDT 9:55 PM AKDT
Nautical Twilight 4:32 AM AKDT 11:30 PM AKDT
Astronomical Twilight 2:31 AM AKDT 1:25 AM AKDT
Moon 6:56 AM AKDT (3/29) 7:52 PM AKDT (3/29)
Length of Visible Light 15h 51m
Length of Day
13h 40m
Waning Crescent, 1% of the Moon is Illuminated
Mar 29
Waning Crescent
Mar 30
New
Apr 7
First Quarter
Apr 14
Full
Apr 21
Last Quarter

Hourly Weather History & Observations

Time (AKDT) Temp. Windchill Dew Point Humidity Pressure Visibility Wind Dir Wind Speed Gust Speed Precip Events Conditions
12:53 AM -4.0 °F -16.3 °F -7.1 °F 87% 30.04 in 0.5 mi SSW 5.8 mph - N/A Fog Light Freezing Fog
1:14 AM -4.0 °F -17.8 °F -7.1 °F 87% 30.04 in 1.5 mi SSW 6.9 mph - N/A   Overcast
1:25 AM -4.0 °F -17.8 °F -7.1 °F 87% 30.04 in 3.0 mi SSW 6.9 mph - N/A   Overcast
1:53 AM -4.0 °F -17.8 °F -7.1 °F 87% 30.04 in 10.0 mi SSW 6.9 mph - N/A   Overcast
2:03 AM -4.0 °F -17.8 °F -7.1 °F 87% 30.03 in 1.8 mi SW 6.9 mph - N/A   Overcast
2:14 AM -4.0 °F -17.8 °F -7.1 °F 87% 30.03 in 0.5 mi SW 6.9 mph - N/A Fog Light Freezing Fog
2:28 AM -5.1 °F -19.1 °F -8.0 °F 87% 30.03 in 0.2 mi SW 6.9 mph - N/A Fog Light Freezing Fog
2:53 AM -6.0 °F -18.6 °F -9.0 °F 87% 30.04 in 0.5 mi WSW 5.8 mph - N/A Fog Light Freezing Fog
3:17 AM -8.0 °F -19.2 °F -9.9 °F 91% 30.03 in 1.2 mi SW 4.6 mph - N/A   Overcast
3:23 AM -8.0 °F -22.5 °F -9.9 °F 91% 30.03 in 4.0 mi SW 6.9 mph - N/A   Overcast
3:53 AM -9.0 °F -23.8 °F -11.0 °F 91% 30.04 in 1.5 mi SSW 6.9 mph - N/A   Overcast
4:24 AM -9.9 °F -24.9 °F -13.0 °F 86% 30.03 in 0.5 mi SW 6.9 mph - N/A Fog Light Freezing Fog
4:53 AM -11.0 °F -22.8 °F -14.1 °F 86% 30.04 in 0.5 mi SW 4.6 mph - 0.00 in Fog Light Freezing Fog
5:53 AM -11.9 °F -23.8 °F -14.1 °F 90% 30.03 in 1.0 mi SSE 4.6 mph - N/A   Mist
6:53 AM -13.0 °F -25.1 °F -15.0 °F 91% 30.03 in 0.8 mi South 4.6 mph - N/A   Overcast
7:33 AM -11.0 °F -22.8 °F -14.1 °F 86% 30.02 in 0.5 mi SSW 4.6 mph - N/A Fog Light Freezing Fog
7:45 AM -11.0 °F -22.8 °F -13.0 °F 91% 30.02 in 0.2 mi SSW 4.6 mph - N/A Fog Light Freezing Fog
7:53 AM -11.9 °F -23.8 °F -13.0 °F 95% 30.02 in 0.2 mi SSW 4.6 mph - N/A Fog Light Freezing Fog
8:53 AM -11.9 °F -23.8 °F -11.9 °F 100% 30.02 in 0.2 mi SSW 4.6 mph - N/A Fog Light Freezing Fog
9:37 AM -11.9 °F -25.7 °F -11.9 °F 100% 30.02 in 0.5 mi WSW 5.8 mph - N/A Fog Light Freezing Fog
9:53 AM -11.0 °F -24.6 °F -11.0 °F 100% 30.03 in 0.8 mi West 5.8 mph - N/A   Overcast
10:53 AM -9.9 °F -21.5 °F -9.9 °F 100% 30.03 in 0.5 mi West 4.6 mph - N/A Fog Light Freezing Fog
11:00 AM -9.0 °F -18.2 °F -9.0 °F 100% 30.02 in 0.2 mi West 3.5 mph - N/A Fog Light Freezing Fog
11:18 AM -8.0 °F -16.9 °F -9.0 °F 95% 30.03 in 0.2 mi WNW 3.5 mph - N/A Fog Light Freezing Fog
11:50 AM -7.6 °F -18.8 °F -9.4 °F 92% 30.03 in 0.5 mi West 4.6 mph - 0.00 in Fog , Snow Light Snow
11:53 AM -7.1 °F -18.1 °F -9.9 °F 87% 30.04 in 0.5 mi West 4.6 mph - 0.00 in Fog , Snow Light Snow
12:39 PM -6.0 °F -16.9 °F -9.0 °F 87% 30.03 in 1.8 mi NW 4.6 mph - 0.00 in Snow Light Snow
12:42 PM -6.0 °F -16.9 °F -9.0 °F 87% 30.02 in 3.0 mi NW 4.6 mph - 0.00 in Snow Light Snow
12:53 PM -6.0 °F -14.7 °F -9.0 °F 87% 30.03 in 2.0 mi NW 3.5 mph - 0.00 in Snow Light Snow
1:15 PM -5.1 °F -13.6 °F -8.0 °F 87% 30.03 in 4.0 mi West 3.5 mph - 0.00 in   Partly Cloudy
1:53 PM -6.0 °F - -7.1 °F 95% 30.04 in 6.0 mi Calm Calm - 0.00 in   Clear
2:04 PM -5.1 °F -13.6 °F -7.1 °F 91% 30.03 in 5.0 mi WSW 3.5 mph - N/A   Partly Cloudy
2:53 PM -5.1 °F -13.6 °F -7.1 °F 91% 30.04 in 4.0 mi WSW 3.5 mph - N/A   Partly Cloudy
3:53 PM -4.0 °F -12.4 °F -8.0 °F 83% 30.03 in 5.0 mi WNW 3.5 mph - N/A   Partly Cloudy
4:53 PM -4.0 °F -14.6 °F -9.0 °F 79% 30.03 in 6.0 mi WNW 4.6 mph - N/A   Scattered Clouds
5:15 PM -2.9 °F - -8.0 °F 79% 30.02 in 6.0 mi Calm Calm - N/A   Overcast
5:53 PM -4.0 °F -14.6 °F -9.9 °F 76% 30.03 in 10.0 mi WNW 4.6 mph - N/A   Overcast
6:15 PM -4.0 °F -14.6 °F -9.0 °F 79% 30.02 in 10.0 mi NW 4.6 mph - N/A   Overcast
6:53 PM -4.0 °F -12.4 °F -9.0 °F 79% 30.03 in 9.0 mi WNW 3.5 mph - N/A   Overcast
7:53 PM -4.0 °F - -8.0 °F 83% 30.02 in 2.0 mi Calm Calm - 0.00 in   Overcast
8:00 PM -5.1 °F - -8.0 °F 87% 30.02 in 1.2 mi Calm Calm - 0.00 in Snow Light Snow
8:18 PM -5.1 °F - -9.9 °F 80% 30.02 in 0.8 mi Calm Calm - 0.00 in Snow Light Snow
8:25 PM -5.1 °F -13.6 °F -9.0 °F 83% 30.02 in 2.5 mi SSE 3.5 mph - 0.00 in Snow Light Snow
8:32 PM -5.1 °F -15.8 °F -9.0 °F 83% 30.02 in 4.0 mi South 4.6 mph - 0.00 in   Overcast
8:53 PM -5.1 °F -17.6 °F -9.9 °F 80% 30.03 in 4.0 mi SW 5.8 mph - 0.00 in   Haze
9:10 PM -4.0 °F -16.3 °F -9.9 °F 76% 30.03 in 7.0 mi WSW 5.8 mph - N/A   Overcast
9:53 PM -4.0 °F -14.6 °F -9.0 °F 79% 30.03 in 8.0 mi WSW 4.6 mph - N/A   Overcast
10:53 PM -4.0 °F -14.6 °F -8.0 °F 83% 30.04 in 7.0 mi WSW 4.6 mph - N/A   Overcast
11:53 PM -4.0 °F -17.8 °F -9.0 °F 79% 30.05 in 7.0 mi WSW 6.9 mph - N/A   Overcast